User: anonymous   Login
Location: New Town
(33.2710°N, 90.7534°W)
Time: 12:36:51
(UTC+00:00)
Language:

Courier 1B Rocket - Orbit

View from above orbital plane
View from above orbital plane
View from above satellite
View from above satellite

Ground track
Ground track

The orbit data is extracted from the following two-line orbital elements,

1 00059U 60013B   21132.84043651  .00000119  00000-0  38478-4 0  9999
2 00059  28.2501 326.2093 0189177 170.8593 189.5462 13.52984808991007
Epoch (UTC): 12 May 2021 20:10:13
Eccentricity: 0.0189177
inclination: 28.2501°
perigee height: 920 km
apogee height: 1202 km
right ascension of ascending node: 326.2093°
argument of perigee: 170.8593°
revolutions per day: 13.52984808
mean anomaly at epoch: 189.5462°
orbit number at epoch: 99100

The dashed part of the orbit path shows where the satellite is in the earth's shadow,  

DLR